GW1995 Weather Reports


time (UTC)temp
C
wind
direction
speed
KPH
gust
KPH
rain 1hr
cm
rain 24hr
cm
rain mn
cm
humidity
%
barometer
mb
20260506014744 8 307 3.2 12.9 0.00 0.00 0.00 41 1010.8
20260506014240 8 306 8.0 11.3 0.00 0.00 0.00 42 1010.5
20260506013737 8 249 3.2 3.2 0.00 0.00 0.00 42 1010.5
20260506013235 8 296 3.2 8.0 0.00 0.00 0.00 41 1010.5
20260506012731 8 341 3.2 9.7 0.00 0.00 0.00 41 1010.6
20260506012228 8 277 1.6 8.0 0.00 0.00 0.00 41 1010.6
20260506011725 8 267 8.0 11.3 0.00 0.00 0.00 40 1010.4
20260506011221 8 309 4.8 8.0 0.00 0.00 0.00 40 1010.4
20260506010720 8 290 3.2 12.9 0.00 0.00 0.00 39 1010.4
20260506010217 8 241 6.4 8.0 0.00 0.00 0.00 40 1010.3
20260506005714 8 225 8.0 16.1 0.00 0.00 0.00 40 1010.4
20260506005211 8 256 3.2 8.0 0.00 0.00 0.00 40 1010.4
20260506004707 8 274 4.8 11.3 0.00 0.00 0.00 39 1010.2
20260506004205 8 292 3.2 4.8 0.00 0.00 0.00 39 1010.1
20260506003700 8 272 3.2 4.8 0.00 0.00 0.00 39 1010.2
20260506003157 8 273 3.2 8.0 0.00 0.00 0.00 39 1010.0
20260506002653 9 288 4.8 11.3 0.00 0.00 0.00 38 1010.4
20260506002149 9 272 3.2 9.7 0.00 0.00 0.00 39 1010.1
20260506001645 9 251 0.0 4.8 0.00 0.00 0.00 40 1010.1
20260506001142 9 295 4.8 9.7 0.00 0.00 0.00 39 1010.2
20260506000639 9 218 1.6 8.0 0.00 0.00 0.00 40 1009.9
20260506000136 9 289 6.4 9.7 0.00 0.00 0.00 39 1010.0
20260505235635 9 269 4.8 11.3 0.00 0.00 0.00 39 1009.8
20260505235132 9 238 3.2 8.0 0.00 0.00 0.00 38 1010.0
20260505234628 9 269 1.6 8.0 0.00 0.00 0.00 38 1009.9
20260505234125 10 298 9.7 24.1 0.00 0.00 0.00 38 1010.0
20260505233623 10 251 6.4 12.9 0.00 0.00 0.00 37 1009.9
20260505233120 10 304 6.4 9.7 0.00 0.00 0.00 37 1009.8
20260505232617 10 280 4.8 8.0 0.00 0.00 0.00 37 1009.8
20260505232115 10 225 4.8 8.0 0.00 0.00 0.00 38 1010.0
20260505231612 10 244 8.0 11.3 0.00 0.00 0.00 38 1010.0
20260505231110 10 214 3.2 4.8 0.00 0.00 0.00 39 1010.1
20260505230608 10 284 6.4 8.0 0.00 0.00 0.00 39 1009.8
20260505230104 10 279 4.8 11.3 0.00 0.00 0.00 39 1009.8
20260505225600 10 322 4.8 11.3 0.00 0.00 0.00 38 1009.9
20260505225057 10 268 3.2 14.5 0.00 0.00 0.00 38 1010.0
20260505224554 10 289 4.8 9.7 0.00 0.00 0.00 39 1010.0
20260505224051 10 239 4.8 9.7 0.00 0.00 0.00 39 1009.8
20260505223548 10 241 6.4 9.7 0.00 0.00 0.00 39 1009.7
20260505223044 10 214 3.2 9.7 0.00 0.00 0.00 38 1010.0
20260505222540 10 346 8.0 16.1 0.00 0.00 0.00 38 1009.6
20260505222037 10 270 8.0 12.9 0.00 0.00 0.00 38 1009.7
20260505221534 10 295 8.0 12.9 0.00 0.00 0.00 38 1009.6
20260505221030 10 254 4.8 9.7 0.00 0.00 0.00 38 1009.8
20260505220528 10 18 4.8 12.9 0.00 0.00 0.00 38 1009.8
20260505220026 10 307 4.8 14.5 0.00 0.00 0.00 38 1009.8
20260505215524 10 330 8.0 12.9 0.00 0.00 0.00 37 1009.8
20260505215021 10 299 8.0 12.9 0.00 0.00 0.00 37 1009.7
20260505214519 11 279 6.4 8.0 0.00 0.00 0.00 36 1009.9
20260505214015 10 222 3.2 9.7 0.00 0.00 0.00 38 1009.8
20260505213513 10 267 3.2 9.7 0.00 0.00 0.00 39 1009.8
20260505213009 10 250 6.4 11.3 0.00 0.00 0.00 38 1009.8
20260505212506 10 272 6.4 9.7 0.00 0.00 0.00 37 1009.9
20260505212003 10 300 4.8 9.7 0.00 0.00 0.00 38 1009.9
20260505211501 10 266 9.7 16.1 0.00 0.00 0.00 37 1010.1
20260505210956 10 248 3.2 8.0 0.00 0.00 0.00 38 1010.0
20260505210453 10 285 6.4 9.7 0.00 0.00 0.00 38 1010.0
20260505205950 10 319 4.8 11.3 0.00 0.00 0.00 39 1010.2
20260505205449 9 243 3.2 12.9 0.00 0.00 0.00 39 1010.0
20260505204945 9 243 8.0 14.5 0.00 0.00 0.00 38 1010.1
20260505204443 10 214 4.8 14.5 0.00 0.00 0.00 39 1010.2
20260505203940 10 261 1.6 9.7 0.00 0.00 0.00 39 1010.1
20260505203437 10 303 8.0 9.7 0.00 0.00 0.00 38 1010.0
20260505202933 10 298 4.8 9.7 0.00 0.00 0.00 39 1010.1
20260505202429 10 252 3.2 4.8 0.00 0.00 0.00 38 1010.2
20260505201926 10 284 1.6 12.9 0.00 0.00 0.00 38 1010.2
20260505201423 10 228 3.2 4.8 0.00 0.00 0.00 39 1010.1
20260505200921 10 260 4.8 12.9 0.00 0.00 0.00 38 1010.1
20260505200418 10 266 8.0 14.5 0.00 0.00 0.00 37 1010.3
20260505195913 10 192 4.8 11.3 0.00 0.00 0.00 37 1010.0
20260505195411 10 263 8.0 12.9 0.00 0.00 0.00 37 1010.3
20260505194908 10 312 9.7 16.1 0.00 0.00 0.00 37 1010.3
20260505194406 10 304 6.4 9.7 0.00 0.00 0.00 36 1010.1
20260505193905 10 280 4.8 12.9 0.00 0.00 0.00 38 1010.1
20260505193404 9 356 1.6 14.5 0.00 0.00 0.00 37 1010.1
20260505192901 9 249 9.7 11.3 0.00 0.00 0.00 36 1010.1
20260505192359 10 265 6.4 14.5 0.00 0.00 0.00 36 1010.2
20260505191856 10 263 6.4 12.9 0.00 0.00 0.00 36 1010.1
20260505191355 10 335 8.0 12.9 0.00 0.00 0.00 36 1010.2
20260505190851 10 221 4.8 12.9 0.00 0.00 0.00 36 1010.2
20260505190347 9 269 4.8 14.5 0.00 0.00 0.00 37 1010.1
20260505185842 9 298 3.2 12.9 0.00 0.00 0.00 37 1010.3
20260505185339 10 252 3.2 12.9 0.00 0.00 0.00 36 1010.3
20260505184835 10 203 4.8 9.7 0.00 0.00 0.00 37 1010.1
20260505184332 10 169 3.2 8.0 0.00 0.00 0.00 38 1010.2
20260505183829 9 272 4.8 11.3 0.00 0.00 0.00 37 1010.4
20260505183326 10 335 4.8 12.9 0.00 0.00 0.00 36 1010.4
20260505182823 9 280 4.8 8.0 0.00 0.00 0.00 37 1010.4
20260505182320 9 285 11.3 16.1 0.00 0.00 0.00 35 1010.4
20260505181817 9 279 4.8 9.7 0.00 0.00 0.00 36 1010.4
20260505181314 9 290 4.8 12.9 0.00 0.00 0.00 37 1010.3
20260505180810 9 243 4.8 14.5 0.00 0.00 0.00 36 1010.3
20260505180307 10 240 8.0 14.5 0.00 0.00 0.00 35 1010.3
20260505175803 9 248 3.2 8.0 0.00 0.00 0.00 36 1010.4
20260505175300 8 257 4.8 8.0 0.00 0.00 0.00 35 1010.3
20260505174756 8 186 3.2 4.8 0.00 0.00 0.00 36 1010.4
20260505174254 8 290 8.0 12.9 0.00 0.00 0.00 36 1010.5
20260505173749 8 267 3.2 8.0 0.00 0.00 0.00 37 1010.4
20260505173246 8 265 9.7 12.9 0.00 0.00 0.00 35 1010.5
20260505172743 8 228 3.2 11.3 0.00 0.00 0.00 36 1010.6
20260505172240 8 261 4.8 11.3 0.00 0.00 0.00 35 1010.6
20260505171740 8 275 8.0 11.3 0.00 0.00 0.00 35 1010.6
20260505171238 8 295 4.8 11.3 0.00 0.00 0.00 33 1010.5
20260505170734 8 277 6.4 9.7 0.00 0.00 0.00 35 1010.4
20260505170231 9 286 3.2 11.3 0.00 0.00 0.00 34 1010.4
20260505165727 8 323 6.4 16.1 0.00 0.00 0.00 35 1010.5
20260505165223 8 205 6.4 12.9 0.00 0.00 0.00 35 1010.3
20260505164718 8 267 4.8 12.9 0.00 0.00 0.00 36 1010.4
20260505164216 8 319 4.8 12.9 0.00 0.00 0.00 35 1010.7
20260505163714 8 248 0.0 9.7 0.00 0.00 0.00 36 1010.4
20260505163212 8 319 3.2 11.3 0.00 0.00 0.00 35 1010.6
20260505162709 8 1 4.8 14.5 0.00 0.00 0.00 35 1010.3
20260505162206 8 352 9.7 16.1 0.00 0.00 0.00 35 1010.5
20260505161703 8 306 9.7 16.1 0.00 0.00 0.00 36 1010.4
20260505161200 8 336 8.0 12.9 0.00 0.00 0.00 35 1010.4
20260505160658 8 290 8.0 17.7 0.00 0.00 0.00 35 1010.4
20260505160155 8 261 4.8 16.1 0.00 0.00 0.00 36 1010.4
20260505153134 8 244 6.4 12.9 0.00 0.00 0.00 36 1010.3
20260505152631 7 266 4.8 11.3 0.00 0.00 0.00 38 1010.5
20260505152127 7 312 6.4 8.0 0.00 0.00 0.00 40 1010.5
20260505151622 7 179 8.0 12.9 0.00 0.00 0.00 37 1010.2
20260505151120 7 271 6.4 9.7 0.00 0.00 0.00 40 1010.4
20260505150616 7 248 4.8 4.8 0.00 0.00 0.00 40 1010.3
20260505150113 7 2 6.4 9.7 0.00 0.00 0.00 40 1010.1
20260505140541 6 258 6.4 11.3 0.00 0.00 0.00 41 1010.1
20260505124955 5 288 6.4 11.3 0.00 0.00 0.00 51 1009.5
20260505124452 5 232 4.8 11.3 0.00 0.00 0.00 51 1009.2
20260505123948 5 255 1.6 3.2 0.00 0.00 0.00 51 1009.3
20260505123445 5 278 0.0 4.8 0.00 0.00 0.00 52 1009.1
20260505122940 5 236 3.2 4.8 0.00 0.00 0.00 53 1009.1
20260505122438 5 280 4.8 4.8 0.00 0.00 0.00 53 1008.9
20260505121935 5 284 1.6 4.8 0.00 0.00 0.00 55 1008.9
20260505121432 5 264 1.6 3.2 0.00 0.00 0.00 56 1008.8
20260505120927 5 241 3.2 4.8 0.00 0.00 0.00 55 1008.9
20260505120424 4 253 1.6 4.8 0.00 0.00 0.00 55 1008.7
20260505115923 4 283 1.6 4.8 0.00 0.00 0.00 55 1008.6
20260505115420 4 231 3.2 3.2 0.00 0.00 0.00 55 1008.4
20260505114918 4 260 1.6 8.0 0.00 0.00 0.00 55 1008.3
20260505114414 4 271 1.6 4.8 0.00 0.00 0.00 55 1008.2
20260505113910 4 276 0.0 4.8 0.00 0.00 0.00 56 1008.3
20260505113407 4 258 1.6 4.8 0.00 0.00 0.00 56 1008.1
20260505112903 4 276 1.6 4.8 0.00 0.00 0.00 56 1008.0
20260505112401 4 231 4.8 8.0 0.00 0.00 0.00 57 1008.0
20260505111856 3 304 3.2 3.2 0.00 0.00 0.00 58 1007.8
20260505111351 3 288 1.6 4.8 0.00 0.00 0.00 58 1007.6
20260505110848 3 265 3.2 4.8 0.00 0.00 0.00 60 1007.5
20260505110345 3 276 1.6 3.2 0.00 0.00 0.00 61 1007.7
20260505101815 4 315 4.8 4.8 0.00 0.00 0.00 59 1007.3
20260505101310 4 292 1.6 8.0 0.00 0.00 0.00 59 1007.4
20260505100807 4 284 4.8 4.8 0.00 0.00 0.00 58 1007.3
20260505100303 5 298 3.2 9.7 0.00 0.00 0.00 58 1007.4
20260505095759 5 284 1.6 8.0 0.00 0.00 0.00 58 1007.6
20260505095257 5 282 3.2 8.0 0.00 0.00 0.00 57 1007.3
20260505094752 5 278 6.4 8.0 0.00 0.00 0.00 57 1007.3
20260505094249 5 273 4.8 9.7 0.00 0.00 0.00 57 1007.1
20260505093745 5 243 1.6 4.8 0.00 0.00 0.00 58 1007.4
20260505093243 5 287 4.8 4.8 0.00 0.00 0.00 58 1007.2
20260505092740 5 256 0.0 1.6 0.00 0.00 0.00 58 1007.1
20260505092238 5 278 1.6 1.6 0.00 0.00 0.00 57 1007.0
20260505091735 5 232 1.6 1.6 0.00 0.00 0.00 56 1007.0
20260505091233 5 289 1.6 4.8 0.00 0.00 0.00 55 1006.9
20260505090730 5 278 1.6 4.8 0.00 0.00 0.00 55 1006.8
20260505090229 5 264 3.2 4.8 0.00 0.00 0.00 54 1006.9
20260505085726 5 226 3.2 3.2 0.00 0.00 0.00 53 1006.7
20260505085224 5 264 3.2 16.1 0.00 0.00 0.00 53 1006.7
20260505084721 5 296 3.2 8.0 0.00 0.00 0.00 53 1006.8
20260505084220 5 317 4.8 4.8 0.00 0.00 0.00 54 1006.5
20260505083716 5 313 4.8 9.7 0.00 0.00 0.00 53 1006.4
20260505083213 5 273 3.2 8.0 0.00 0.00 0.00 53 1006.4
20260505082709 5 238 1.6 4.8 0.00 0.00 0.00 53 1006.2
20260505082206 5 280 3.2 4.8 0.00 0.00 0.00 53 1006.2
20260505081702 5 263 1.6 8.0 0.00 0.00 0.00 53 1006.1
20260505081200 5 278 3.2 4.8 0.00 0.00 0.00 53 1005.9
20260505080657 5 288 4.8 9.7 0.00 0.00 0.00 53 1006.0
20260505080152 6 270 4.8 8.0 0.00 0.00 0.00 53 1006.0
20260505075648 6 199 4.8 4.8 0.00 0.00 0.00 53 1006.1
20260505075145 6 271 3.2 4.8 0.00 0.00 0.00 52 1006.0
20260505074642 6 317 4.8 8.0 0.00 0.00 0.00 52 1006.0
20260505074139 6 251 1.6 4.8 0.00 0.00 0.00 52 1005.8
20260505073637 6 270 3.2 8.0 0.00 0.00 0.00 52 1005.9
20260505073135 6 325 3.2 8.0 0.00 0.00 0.00 52 1005.8
20260505072630 6 304 4.8 8.0 0.00 0.00 0.00 52 1005.8
20260505072127 6 278 4.8 9.7 0.00 0.00 0.00 52 1005.9
20260505071623 6 283 1.6 3.2 0.00 0.00 0.00 52 1005.9
20260505071121 6 274 3.2 8.0 0.00 0.00 0.00 52 1006.0
20260505070618 6 268 3.2 3.2 0.00 0.00 0.00 52 1005.9
20260505070114 6 269 3.2 3.2 0.00 0.00 0.00 52 1006.0
20260505065610 6 279 3.2 8.0 0.00 0.00 0.00 51 1006.0
20260505065107 6 249 1.6 8.0 0.00 0.00 0.00 51 1006.2
20260505064604 6 269 4.8 11.3 0.00 0.00 0.00 51 1006.1
20260505064102 6 309 4.8 4.8 0.00 0.00 0.00 52 1005.9
20260505063559 6 296 3.2 8.0 0.00 0.00 0.00 52 1006.1
20260505063055 6 282 3.2 4.8 0.00 0.00 0.00 53 1006.0
20260505062551 6 324 4.8 11.3 0.00 0.00 0.00 53 1006.1
20260505062049 6 278 4.8 8.0 0.00 0.00 0.00 52 1006.0
20260505061546 7 276 3.2 4.8 0.00 0.00 0.00 53 1006.1
20260505061044 7 273 4.8 8.0 0.00 0.00 0.00 53 1006.0
20260505060541 6 262 3.2 11.3 0.00 0.00 0.00 54 1005.9
20260505060038 6 210 3.2 8.0 0.00 0.00 0.00 55 1006.0
20260505055533 6 333 4.8 8.0 0.00 0.00 0.00 57 1006.0
20260505055030 6 230 0.0 3.2 0.00 0.00 0.00 56 1006.1
20260505054527 6 246 1.6 3.2 0.00 0.00 0.00 54 1006.1
20260505054026 6 270 0.0 4.8 0.00 0.00 0.00 55 1005.9
20260505053522 5 233 0.0 1.6 0.00 0.00 0.00 56 1006.0
20260505053019 5 216 0.0 1.6 0.00 0.00 0.00 56 1005.9
20260505052516 6 227 1.6 3.2 0.00 0.00 0.00 55 1006.0
20260505052014 6 231 1.6 1.6 0.00 0.00 0.00 55 1005.9
20260505051510 6 227 1.6 3.2 0.00 0.00 0.00 54 1005.9
20260505051008 6 236 1.6 1.6 0.00 0.00 0.00 54 1005.9
20260505050506 6 239 1.6 3.2 0.00 0.00 0.00 54 1005.6
20260505041434 6 240 1.6 3.2 0.00 0.00 0.00 50 1005.9
20260505040931 7 254 1.6 3.2 0.00 0.00 0.00 50 1005.6
20260505040428 7 219 1.6 3.2 0.00 0.00 0.00 49 1005.5
20260505035925 7 241 1.6 3.2 0.00 0.00 0.00 49 1005.6
20260505035421 7 227 1.6 3.2 0.00 0.00 0.00 48 1005.5
20260505034919 7 232 1.6 3.2 0.00 0.00 0.00 48 1005.5
20260505034415 7 234 1.6 3.2 0.00 0.00 0.00 47 1005.7
20260505033912 7 240 1.6 4.8 0.00 0.00 0.00 46 1005.7
20260505033408 7 257 1.6 3.2 0.00 0.00 0.00 46 1005.6
20260505032907 7 248 3.2 4.8 0.00 0.00 0.00 45 1005.7
20260505032403 8 252 1.6 1.6 0.00 0.00 0.00 46 1005.7
20260505031900 8 247 0.0 3.2 0.00 0.00 0.00 45 1005.7
20260505031357 8 244 1.6 1.6 0.00 0.00 0.00 45 1005.7
20260505030854 8 262 1.6 3.2 0.00 0.00 0.00 44 1005.4
20260505030344 8 255 3.2 4.8 0.00 0.00 0.00 44 1005.6
20260505025840 8 251 1.6 4.8 0.00 0.00 0.00 43 1005.4
20260505025338 8 252 1.6 4.8 0.00 0.00 0.00 43 1005.4
20260505024836 8 287 4.8 8.0 0.00 0.00 0.00 43 1005.3
20260505024334 8 266 0.0 4.8 0.00 0.00 0.00 43 1005.3
20260505023830 8 251 1.6 3.2 0.00 0.00 0.00 43 1005.1
20260505023327 8 244 3.2 4.8 0.00 0.00 0.00 42 1005.3
20260505022825 8 258 3.2 9.7 0.00 0.00 0.00 41 1005.1
20260505022321 8 264 1.6 3.2 0.00 0.00 0.00 41 1005.1
20260505021819 8 292 4.8 12.9 0.00 0.00 0.00 40 1005.1
20260505021315 9 259 1.6 9.7 0.00 0.00 0.00 41 1004.7
20260505020811 9 258 4.8 11.3 0.00 0.00 0.00 42 1004.7
20260505020307 9 289 4.8 8.0 0.00 0.00 0.00 42 1004.8
20260505015804 9 309 11.3 12.9 0.00 0.00 0.00 42 1004.5
20260505015301 9 274 6.4 14.5 0.00 0.00 0.00 42 1004.5